TimeCST,TemperatureF,Dew PointF,Humidity,Sea Level PressureIn,VisibilityMPH,Wind Direction,Wind SpeedMPH,Gust SpeedMPH,PrecipitationIn,Events,Conditions,WindDirDegrees,DateUTC
12:53 AM,37.9,33.1,83,30.26,10.0,NW,3.5,-,N/A,,Clear,320,2012-11-14 06:53:00
1:53 AM,39.0,32.0,76,30.26,10.0,NNW,5.8,-,N/A,,Clear,330,2012-11-14 07:53:00
2:53 AM,37.0,32.0,82,30.27,10.0,NW,3.5,-,N/A,,Clear,320,2012-11-14 08:53:00
3:53 AM,37.0,30.9,79,30.26,10.0,NNW,4.6,-,N/A,,Clear,340,2012-11-14 09:53:00
4:53 AM,36.0,30.9,82,30.27,10.0,NW,4.6,-,N/A,,Clear,320,2012-11-14 10:53:00
5:36 AM,37.4,32.0,81,30.28,10.0,NW,3.5,-,N/A,,Mostly Cloudy,310,2012-11-14 11:36:00
5:53 AM,37.9,32.0,79,30.28,10.0,NW,3.5,-,N/A,,Overcast,310,2012-11-14 11:53:00
6:53 AM,39.9,34.0,79,30.29,10.0,NNW,4.6,-,N/A,,Overcast,340,2012-11-14 12:53:00
7:13 AM,42.8,35.6,76,30.30,10.0,Calm,Calm,-,N/A,,Overcast,0,2012-11-14 13:13:00
7:53 AM,44.1,37.0,76,30.31,10.0,NNE,5.8,-,N/A,,Overcast,30,2012-11-14 13:53:00
8:35 AM,46.4,41.0,81,30.30,10.0,NNE,4.6,-,N/A,,Overcast,20,2012-11-14 14:35:00
8:53 AM,46.0,42.1,86,30.30,-9999.0,NNE,3.5,-,N/A,,Overcast,20,2012-11-14 14:53:00
9:53 AM,51.1,44.1,77,30.30,-9999.0,North,3.5,-,N/A,,Overcast,10,2012-11-14 15:53:00
10:08 AM,51.8,44.6,76,30.30,-9999.0,Calm,Calm,-,N/A,,Overcast,0,2012-11-14 16:08:00
10:51 AM,55.4,46.4,72,30.29,10.0,NE,3.5,-,N/A,,Overcast,40,2012-11-14 16:51:00
10:53 AM,55.0,46.9,74,30.29,10.0,Variable,4.6,-,N/A,,Overcast,0,2012-11-14 16:53:00
11:53 AM,57.0,48.9,74,30.26,10.0,NE,4.6,-,N/A,,Overcast,40,2012-11-14 17:53:00
12:53 PM,61.0,50.0,67,30.24,10.0,North,4.6,-,N/A,,Mostly Cloudy,360,2012-11-14 18:53:00
1:02 PM,60.8,50.0,68,30.23,10.0,Variable,4.6,-,N/A,,Scattered Clouds,0,2012-11-14 19:02:00
1:16 PM,59.0,50.0,72,30.23,10.0,NNE,4.6,-,N/A,,Mostly Cloudy,20,2012-11-14 19:16:00
1:23 PM,60.8,50.0,68,30.23,10.0,NE,6.9,-,N/A,,Scattered Clouds,40,2012-11-14 19:23:00
1:30 PM,60.8,50.0,68,30.23,10.0,NE,5.8,-,N/A,,Mostly Cloudy,40,2012-11-14 19:30:00
1:37 PM,60.8,50.0,68,30.23,10.0,Calm,Calm,-,N/A,,Scattered Clouds,0,2012-11-14 19:37:00
1:53 PM,60.1,50.0,69,30.22,10.0,NE,3.5,-,N/A,,Mostly Cloudy,40,2012-11-14 19:53:00
2:53 PM,59.0,50.0,72,30.22,10.0,NE,5.8,-,N/A,,Overcast,50,2012-11-14 20:53:00
3:53 PM,59.0,50.0,72,30.23,10.0,ENE,4.6,-,N/A,,Overcast,60,2012-11-14 21:53:00
4:27 PM,57.2,50.0,77,30.24,10.0,NNE,4.6,-,N/A,,Overcast,20,2012-11-14 22:27:00
4:53 PM,57.0,50.0,77,30.25,10.0,NNE,4.6,-,N/A,,Overcast,20,2012-11-14 22:53:00
5:53 PM,55.9,48.9,77,30.25,10.0,NE,5.8,-,N/A,,Overcast,40,2012-11-14 23:53:00
6:53 PM,55.0,48.9,80,30.26,10.0,NNE,5.8,-,N/A,,Overcast,20,2012-11-15 00:53:00
7:53 PM,54.0,48.9,83,30.26,10.0,Calm,Calm,-,N/A,,Overcast,0,2012-11-15 01:53:00
8:53 PM,54.0,48.9,83,30.26,10.0,North,3.5,-,N/A,,Overcast,10,2012-11-15 02:53:00
9:53 PM,54.0,48.9,83,30.26,10.0,Calm,Calm,-,N/A,,Overcast,0,2012-11-15 03:53:00
10:53 PM,54.0,48.9,83,30.25,9.0,Calm,Calm,-,N/A,,Overcast,0,2012-11-15 04:53:00
11:53 PM,53.1,48.9,86,30.24,10.0,ENE,5.8,-,N/A,,Overcast,60,2012-11-15 05:53:00